Miscellaneous Local Product
Issued by NWS Hastings, NE

Home | Current Version | Previous Version | Text Only | Print | Product List | Glossary Off
Versions: 1 2 3 4 5 6 7 8 9 10 11 12 13 14 15 16 17 18 19 20 21 22 23 24 25 26 27 28 29 30 31 32 33 34 35 36 37 38 39 40 41 42 43 44 45 46 47 48 49 50

874
AXUS43 KGID 250402
MISGRI

GID CWA HOURLY WEATHER ROUNDUP
NATIONAL WEATHER SERVICE HASTINGS NE
1100 PM CDT WED AUG 24 2016

NOTE: "FAIR" INDICATES FEW OR NO CLOUDS BELOW 12,000 FEET WITH NO
SIGNIFICANT WEATHER AND/OR OBSTRUCTIONS TO VISIBILITY.

...SOUTH CENTRAL NEBRASKA...

CITY           SKY/WX    TMP DP  RH WIND       PRES   REMARKS
GRAND ISLAND   CLOUDY    61  56  83 N3        30.11S
HASTINGS       CLOUDY    58  54  86 CALM      30.12F
KEARNEY        MOCLDY    64  54  68 CALM      30.12S
ORD            PTCLDY    62  57  83 NW6       30.14R
YORK           CLEAR     59  57  94 N5        30.09F
AURORA         CLOUDY    58  57  96 NW5       30.11R
LEXINGTON      CLOUDY    63  53  70 SE3       30.14S
HOLDREGE       CLOUDY    62  57  86 CALM      30.13S
HEBRON         PTCLDY    61  60  96 CALM      30.08S

...NEBRASKA PANHANDLE...

CITY           SKY/WX    TMP DP  RH WIND       PRES   REMARKS
CHADRON        LGT RAIN  58  53  84 SE10      30.20F
ALLIANCE       CLOUDY    60  50  69 N13       30.24R
SCOTTSBLUFF    CLOUDY    59  48  67 NE13      30.22S
SIDNEY         PTCLDY    57  42  57 SE5       30.25R

...WESTERN AND NORTH CENTRAL NEBRASKA...

CITY           SKY/WX    TMP DP  RH WIND       PRES   REMARKS
VALENTINE      CLOUDY    57  51  80 SW6       30.18R
AINSWORTH      CLOUDY    61  56  86 SW3       30.17S
ONEILL         CLOUDY    63  55  75 NW3       30.14F
BROKEN BOW     PTCLDY    57  54  89 N8        30.16R
IMPERIAL       CLOUDY    62  43  49 SW3       30.20R
NORTH PLATTE   PTCLDY    61  49  64 CALM      30.19R
MCCOOK         CLOUDY    65  50  58 CALM      30.15R

...EASTERN NEBRASKA...

CITY           SKY/WX    TMP DP  RH WIND       PRES   REMARKS
NORFOLK        PTCLDY    59  56  89 W3        30.11S
SO SIOUX CITY  CLEAR     63  58  83 N5        30.08R
TEKAMAH        CLEAR     60  57  89 CALM      30.06F
COLUMBUS       CLEAR     54  46  76 CALM      30.09S
ALBION         CLOUDY    58  55  90 NW6       30.12S
OMAHA EPPLEY   CLOUDY    66  61  84 N6        30.05F
OFFUTT AFB     CLOUDY    68  63  85 N5        30.04F
MILLARD        CLOUDY    68  60  74 CALM      30.06S
LINCOLN        CLEAR     62  60  93 CALM      30.07S
NEBRASKA CITY  PTCLDY    66  66 100 N3        30.04F
BEATRICE       PTCLDY    64  62  91 CALM      30.06F
FALLS CITY     CLOUDY    69  69 100 CALM      30.03R

...NORTHERN KANSAS...

CITY           SKY/WX    TMP DP  RH WIND       PRES   REMARKS
GOODLAND       CLOUDY    59  50  72 CALM      30.19R
HILL CITY      PTCLDY    62  54  74 N6        30.13S
NORTON         CLOUDY    63  50  63 N3        30.13
SMITH CENTER   CLEAR     57  55  94 CALM      30.11S
BELOIT         CLEAR     59  55  88 CALM      30.08R
HAYS           MOCLDY    64  54  68 NE9       30.11R
RUSSELL        MOCLDY    63  58  83 NE9       30.09R
CONCORDIA      CLEAR     61  58  90 N5        30.08S
SALINA         PTCLDY    69  64  84 N6        30.06R
TOPEKA         CLOUDY    72  70  93 N5        30.04R



USA.gov is the U.S. government's official web portal to all federal, state and local government web resources and services.